ONEWEB-0185 (48220 NORAD) Tracking and Keplerian Element Data

This shows tracking and keplerian element data for the satellite.

Feedback or suggestion? Click here.




ElementValue
Catalog48220
NameONEWEB-0185
Epoch Orbit191
Epoch Day173.83334491
Epoch Year2021
RAAN294.1198
Inclination87.5485
Eccentricity0.0011188
Argument of Perigee62.556
Mean Anonmoly234.6057
Mean Motion14.40162453
Decay Rate-0.0090499
L11 48220U 21031L 21173.83334491 -.00904990 00000-0 -30440+0 0 9995
L22 48220 87.5485 294.1198 0011188 62.5560 234.6057 14.40162453 1910

Live tracking and technical data element details for ONEWEB-0185 (NORAD 48220). ONEWEB-0185 can be tracked NOW for your location showing map with azimuth and elevation plus other details from your city location.

Track the satellite on the map from your city or location and see movement details for azimuth, elevation, latitude, longitude, range, height, and movement on the map or in text.







IsCatalogInMostPopularTable: catalog: 48220, numindb: 24
Update: records affected: 1



GetName: 48220 ONEWEB-0185

Hit Count: updated at: Thu, 24 Jun 2021 04:12:58 GMT